Zurück zum Katalog

KUIPER-00357

AktivKommunikationLEO
NORAD 68866·PAYLOAD·🇺🇸 United States

Gestartet Apr 28, 2026 von Cape Canaveral Space Force Station

Loading…

Nächste Überflüge (nächste 24 Stunden)

TLE

AktuellSource: CelesTrak SupGP

Epoche: Sep 14, 2026, 19:08 UTC

1 68866C 26095C   26257.79733796  .00002951  00000+0  38637-3 0  2572
2 68866  51.9006 206.9126 0001060  48.7162 194.0456 14.79925048    17

Verfolge KUIPER-00357 in Echtzeit mit AllMySat

Download on the App Store